Flag for Germany Weather past 2 weeks in Euskirchen, North Rhine-Westphalia, Germany

Now
77 °F

Scattered clouds.


Feels Like: 78 °F
Forecast: 58 / 78 °F
Wind: 3 mph from East

Location: Noervenich

Current Time: Jul 31, 2014 at 8:08:19 PM

Latest Report: Jul 31, 2014 at 7:20 PM


Visibility: N/A

Pressure: 29.92 "Hg

Humidity: 44%

Dew point: 54 °F

Location of EuskirchenLocation

Historic Weather in Euskirchen — Graph

°F

Euskirchen temperature yesterday

Maximum temperature yesterday: 73 °F (at 3:20 PM)
Minimum temperature yesterday: 63 °F (at 6:20 AM)
Average temperature yesterday: 67 °F

Past Weeks' High & Low Weather Summary

 TemperatureHumidityPressure
High93 °F (Jul 18, 5:20 PM)100% (Jul 17, 5:20 AM)30.18 "Hg (Jul 17, 5:20 AM)
Low55 °F (Jul 31, 6:20 AM)28% (Jul 18, 5:20 PM)29.77 "Hg (Jul 20, 3:20 AM)
Average70 °F75%29.95 "Hg
* Reported Jul 16 6:20 PM — Jul 31 6:20 PM, Euskirchen, Weather by CustomWeather, © 2014

Note: Actual official high and low records may vary slightly from our data, if they occured in-between our weather recording intervals... More about our weather records

Advertising

Euskirchen weather history for previous 24 hours

 ConditionsComfort  
Time TempWeatherWind HumidityBarometerVisibility
6:20 PM
Jul 31
79 °FPassing clouds.3 mph42%29.92 "HgN/A
5:20 PM79 °FPassing clouds.3 mph39%29.95 "HgN/A
4:20 PM77 °FScattered clouds.2 mph42%29.95 "HgN/A
3:20 PM77 °FPassing clouds.2 mph42%29.98 "HgN/A
2:20 PM75 °FPassing clouds.2 mph47%29.98 "HgN/A
1:20 PM73 °FPassing clouds.2 mph53%30.01 "HgN/A
12:20 PM70 °FPassing clouds.3 mph64%30.01 "HgN/A
11:20 AM68 °FPassing clouds.2 mph64%30.01 "HgN/A
10:20 AM66 °FPassing clouds.1 mph68%30.04 "HgN/A
9:20 AM63 °FPassing clouds.1 mph77%30.04 "HgN/A
8:20 AM61 °FCool.1 mph83%30.04 "HgN/A
7:20 AM57 °FPassing clouds.1 mph88%30.04 "HgN/A
6:20 AM55 °FPassing clouds.5 mph94%30.01 "HgN/A
5:20 AM57 °FPassing clouds.5 mph88%30.01 "HgN/A
4:20 AM57 °FPassing clouds.3 mph88%30.01 "HgN/A
3:20 AM59 °FPassing clouds.5 mph88%30.01 "HgN/A
2:20 AM61 °FPassing clouds.5 mph88%30.01 "HgN/A
1:20 AM61 °FPassing clouds.5 mph88%30.01 "HgN/A
12:20 AM63 °FMild.5 mph83%30.01 "HgN/A
11:20 PM
Jul 30
64 °FPassing clouds.6 mph78%29.98 "HgN/A
10:20 PM66 °FScattered clouds.5 mph78%29.98 "HgN/A
9:20 PM68 °FScattered clouds.5 mph69%29.98 "HgN/A
8:20 PM70 °FScattered clouds.7 mph64%29.95 "HgN/A
Weather by CustomWeather, © 2014

See weather overviewHow to use our weather pages